Regional Weather Roundup
Issued by NWS

Home | Current Version | Previous Version | Graphics & Text | Print | Product List | Glossary On
Versions: 1 2 3 4 5 6 7 8 9 10 11 12 13 14 15 16 17 18 19 20 21 22 23 24 25 26 27 28 29 30 31 32 33 34 35 36 37 38 39 40 41 42 43 44 45 46 47 48 49 50
000
ASUS43 KLOT 290012
RWRIL

ILLINOIS REGIONAL WEATHER ROUNDUP
NATIONAL WEATHER SERVICE CHICAGO/ROMEOVILLE IL
700 PM CDT WED SEP 28 2016

NOTE: "FAIR" INDICATES FEW OR NO CLOUDS BELOW 12,000 FEET WITH NO
SIGNIFICANT WEATHER AND/OR OBSTRUCTIONS TO VISIBILITY.

* THESE STATIONS ARE NOT UNDER NWS QUALITY CONTROL. THEY ALSO MAY NOT
  REPORT WEATHER SUCH AS PRECIPITATION OR FOG.

ILZ001-002-007-009-015-016-024-290100-
NORTHWEST ILLINOIS

CITY           SKY/WX    TMP DP  RH WIND       PRES   REMARKS
MOLINE         CLOUDY    60  50  69 N10       30.11R
6HR MIN TEMP:  59; 6HR MAX TEMP:  65;

STERLING*      CLEAR     57  51  80 N6        30.11R
SAVANNA*       CLEAR     55  51  87 N7        30.13R
$$

ILZ003-004-008-010-011-017-018-290100-
NORTH CENTRAL ILLINOIS

CITY           SKY/WX    TMP DP  RH WIND       PRES   REMARKS
ROCKFORD       PTCLDY    58  50  75 N9        30.12R
6HR MIN TEMP:  56; 6HR MAX TEMP:  63; 6HR PCP:  0.02;

FREEPORT*      CLEAR     55  50  83 N7        30.14R
ROCHELLE*      MOCLDY    59  50  73 N9G16     30.09R
DE KALB*       CLEAR     58  46  63 N10G20    30.09R
$$

ILZ005-006-012>014-019>023-290100-
NORTHEAST ILLINOIS

CITY           SKY/WX    TMP DP  RH WIND       PRES   REMARKS
CHICAGO-OHARE  TSTM      55  50  83 NE18      30.07R
6HR MIN TEMP:  55; 6HR MAX TEMP:  59; 6HR PCP:  0.13;

CHICAGO-MIDWAY RAIN      57  52  83 N13       30.04R
6HR MIN TEMP:  56; 6HR MAX TEMP:  60; 6HR PCP:  0.26;

AURORA         PTCLDY    59  46  62 N15       30.07R
6HR MIN TEMP:  59; 6HR MAX TEMP:  65;

LANSING*       RAIN      57  51  80 NE15G28   30.01R
JOLIET*        CLOUDY    58  53  84 N7        30.06R
WAUKEGAN       RAIN      57  53  86 N18G32    30.08R FOG
6HR MIN TEMP:  55; 6HR MAX TEMP:  63; 6HR PCP:  0.07;

DUPAGE AIRPORT MOCLDY    58  48  69 N13       30.06R
6HR MIN TEMP:  58; 6HR MAX TEMP:  64; 6HR PCP: TRACE;

KANKAKEE*      CLOUDY    56  51  84 NW8       30.02R
WHEELING       RAIN      54  49  83 N12G20    30.10R
6HR MIN TEMP:  54; 6HR MAX TEMP:  60; 6HR PCP:  0.08;

MORRIS*        MOCLDY    55  51  89 CALM      30.04R
ROMEOVILLE*    RAIN      56  54  93 N10G16    30.06R
NORTHERLY ISL    N/A     57  54  89 N10         N/A
$$

LMZ740>746-290100-
SOUTHERN LAKE MICHIGAN

STATION/POSITION SKY/WX   TEMP    WIND        PRES    VSBY  WAVE
                          AIR SEA DIR/SP/G                  HT/PER
                          (F)     (DEG/KT/KT) (MB)    (MI)  (FT/S)
SOUTHERN BUOY              64 69   50/ 23/ 29 1016.4R         5/ 5
WILMETTE HARBOR            57 58   20/ 17/ 21   N/A           8/ 5
HARRISON CRIB              61      20/ 16/ 18   N/A
BURNHAM HARBOR             58     350/ 11/ 29   N/A
CALUMET HARBOR                     20/ 12/ 17 1016.1R
BURNS HARBOR               64      40/ 19/ 26 1015.9R
MICHIGAN CITY              61      30/ 19/ 20   N/A
MICHIGAN CITY 6N           63 66   30/ 21/ 29   N/A           5/ 4
ST. JOSEPH                 61 65   30/ 19/ 23 1015.5          5/ 4
$$

ILZ025>027-034>036-040-047-049-050-058-095>099-290100-
WEST-CENTRAL ILLINOIS

CITY           SKY/WX    TMP DP  RH WIND       PRES   REMARKS
QUINCY         CLOUDY    60  48  64 NW7       30.12R
GALESBURG*     PTCLDY    58  48  68 NW9       30.11R
MACOMB*        MOCLDY    59  48  66 N9        30.13R
JACKSONVILLE*  CLOUDY    59  48  66 W7        30.10R
PITTSFIELD*    CLOUDY    60  49  66 NW7       30.12S
$$

ILZ028>032-037-038-041>044-048-051>054-059>061-290100-
CENTRAL ILLINOIS

CITY           SKY/WX    TMP DP  RH WIND       PRES   REMARKS
PONTIAC        CLOUDY    57  53  89 N14       30.06R
BLOOMINGTON    CLOUDY    58  49  72 NW10      30.06R
DECATUR        CLOUDY    58  48  69 NW12G20   30.05R
PEORIA         PTCLDY    59  49  69 N6        30.08R
6HR MIN TEMP:  57; 6HR MAX TEMP:  61; 6HR PCP: TRACE;

LACON*         CLEAR     58  47  66 N6        30.07R
LINCOLN*       MOCLDY    59  51  73 NW6       30.06S
SPRINGFIELD    CLOUDY    58  51  78 NW6       30.08R
6HR MIN TEMP:  58; 6HR MAX TEMP:  63; 6HR PCP: TRACE;

TAYLORVILLE    MOCLDY    57  48  73 NW9G16    30.07R
6HR MIN TEMP:  57; 6HR MAX TEMP:  62;

$$

ILZ033-039-045-046-055>057-062-063-290100-
EAST-CENTRAL ILLINOIS

CITY           SKY/WX    TMP DP  RH WIND       PRES   REMARKS
CHAMPAIGN      LGT RAIN  57  49  74 NW8       30.03R
RANTOUL*       CLOUDY    57  53  85 NW8       30.03R
MATTOON        CLOUDY    58  47  66 NW18G25   30.02R
PARIS*         CLOUDY    58  49  72 CALM      30.01R
$$

ILZ079-100>102-290100-
SOUTHWEST ILLINOIS

CITY           SKY/WX    TMP DP  RH WIND       PRES   REMARKS
BELLEVILLE     PTCLDY    61  47  60 NW7       30.07R
CAHOKIA*       PTCLDY    61  43  51 N15       30.10R
SPARTA*        MOCLDY    59  47  64 N7        30.09R
$$

ILZ064>066-069>071-074>076-080>082-084>086-088>090-092>094-290100-
SOUTH-CENTRAL ILLINOIS

CITY           SKY/WX    TMP DP  RH WIND       PRES   REMARKS
CARBONDALE     PTCLDY    59  46  62 N10       30.06R
6HR MIN TEMP:  59; 6HR MAX TEMP:  70;

CAIRO*         CLEAR     60  47  62 N5        30.04R
EFFINGHAM*     CLOUDY    60  49  68 NW14G21   30.05R
MARION         CLEAR     61  45  55 N5        30.07R
MT. VERNON     MOCLDY    59  43  55 W3        30.06R
CENTRALIA*     MOCLDY    60  48  66 NW8       30.05S
SALEM*         CLEAR     59  47  63 NW8       30.06R
METROPOLIS*    CLEAR     62  46  56 N8        30.04R
$$

ILZ067-068-072-073-078-083-087-091-290100-
SOUTHEAST ILLINOIS

CITY           SKY/WX    TMP DP  RH WIND       PRES   REMARKS
LAWRENCEVILLE  CLOUDY    60  46  59 NW13      30.01R
FLORA*         MOCLDY    59  48  65 NW7       30.04R
FAIRFIELD*     CLOUDY    58  47  66 CALM      30.03S
HARRISBURG*    CLOUDY    60  47  62 N7        30.05R
ROBINSON*      CLOUDY    58  47  67 NW10      30.02R
CARMI*         CLEAR     56  47  71 W6        30.03R
$$

ABBREVIATIONS USED IN REMARKS
   TC - TEMPERATURE IN CELSIUS
  WCI - WIND CHILL INDEX
   HX - HEAT INDEX
  VSB - VISIBILITY
$$





USA.gov is the U.S. government's official web portal to all federal, state and local government web resources and services.